Wind_Speed
57 57 58 58 58 58 58 59 59 58 58 58 57 56 55 53 52 51 49 48 47 45 43 41 39 38 37 36 35 33 32 30 27 26 27 27 27 26 25 25 26 26 26
60 61 61 62 62 62 62 62 62 62 62 61 61 60 59 58 56 55 53 51 50 48 46 44 42 40 39 37 36 35 34 32 30 28 28 27 27 27 26 26 26 26 27
62 63 63 64 64 64 64 64 64 63 63 63 62 62 62 61 60 59 57 55 53 51 49 47 45 43 41 40 38 36 35 33 32 30 28 27 27 27 26 26 26 26 26
63 63 63 63 62 62 61 61 61 61 61 61 61 61 62 62 61 61 60 59 57 54 52 50 47 45 43 42 40 38 36 34 33 31 30 28 27 27 27 26 26 26 26
62 60 58 56 55 54 53 54 54 56 57 59 60 61 62 62 62 61 61 60 59 57 55 52 50 47 45 43 41 40 38 35 33 32 30 29 28 28 27 27 26 26 25
56 52 49 47 45 44 43 44 45 47 48 51 53 55 57 59 61 61 61 60 59 58 56 55 52 49 46 44 42 40 38 36 34 33 31 29 28 28 27 26 26 25 25
50 46 44 43 41 40 39 39 38 39 39 39 41 42 44 47 51 54 57 58 58 57 55 55 53 51 49 46 43 41 39 36 35 33 31 29 28 27 26 25 25 25 25
46 44 43 41 40 39 38 37 37 36 34 34 33 33 34 36 39 43 47 50 52 53 53 52 53 52 50 47 45 42 40 37 35 33 31 29 28 27 25 24 24 23 24
44 43 42 41 40 39 38 37 35 34 32 30 29 30 30 31 32 35 38 41 44 47 49 50 50 50 49 47 45 43 40 37 35 32 31 29 27 26 24 24 24 23 23
43 42 41 40 39 38 37 36 35 33 31 29 27 27 27 27 28 29 32 34 38 41 43 45 47 49 48 47 45 43 40 38 35 32 30 28 27 25 24 24 23 23 23
43 41 40 39 38 37 36 35 33 32 31 29 27 26 25 25 25 26 27 29 33 36 38 40 42 45 46 45 44 42 40 37 35 32 30 28 27 25 23 23 23 22 22
39 37 36 35 34 34 33 33 31 30 30 29 27 26 25 23 22 23 23 25 28 32 36 38 39 40 43 44 42 40 38 36 34 32 30 28 26 24 23 23 22 22 22
34 33 32 31 31 30 30 30 29 28 27 27 26 24 23 21 20 20 21 22 25 28 31 34 36 37 38 40 40 38 36 34 33 32 29 27 26 24 23 23 22 22 22
31 29 27 27 26 26 26 26 26 25 24 24 23 22 20 19 18 17 18 20 22 25 27 31 34 35 35 37 39 36 34 32 31 30 28 26 24 23 24 24 23 22 22
26 24 22 21 22 22 22 23 23 22 21 21 20 20 18 17 16 15 17 18 19 23 26 29 33 33 33 34 35 35 33 31 30 28 27 25 24 23 23 23 22 21 21
21 18 17 16 16 16 18 19 19 19 19 18 18 17 16 16 15 14 14 16 17 20 24 26 29 31 32 32 32 32 32 31 29 28 26 25 23 23 22 22 21 21 21
17 14 12 10 10 10 11 13 15 16 16 16 16 15 14 14 14 13 13 13 16 20 24 25 27 29 30 31 31 31 30 30 29 28 27 25 23 22 22 21 21 21 21
16 13 9 6 4 5 7 9 11 12 13 13 13 13 13 13 12 13 13 14 17 20 24 26 27 29 30 31 31 31 30 29 28 27 26 26 24 23 22 22 21 21 20
17 14 10 7 4 1 3 6 8 9 10 11 11 12 12 12 11 12 14 16 18 22 25 26 28 30 30 30 31 30 29 28 27 26 26 25 24 23 23 22 21 21 20
20 17 14 11 8 7 6 7 8 9 10 11 11 11 11 11 12 14 17 19 21 23 25 26 26 27 29 30 30 29 28 27 27 26 25 24 24 23 22 21 20 19 19
23 20 18 15 13 11 10 10 10 11 11 11 12 12 12 13 15 18 19 22 24 24 24 25 25 26 28 28 28 28 27 27 27 26 24 23 23 22 21 20 19 18 17
27 24 21 19 17 15 13 13 13 13 13 14 15 14 15 17 19 21 23 24 25 25 26 25 26 26 27 28 28 28 27 27 26 25 24 22 21 20 20 19 18 17 17
30 28 26 23 21 19 17 16 16 16 16 17 18 19 20 21 23 23 24 24 25 25 26 25 26 27 27 27 27 27 26 25 24 23 22 21 20 20 19 18 17 17 17
32 30 28 26 24 23 21 21 21 21 22 22 23 23 23 23 22 23 24 24 25 26 27 27 27 27 26 26 25 25 24 23 22 21 20 19 18 18 17 17 16 16 17
33 32 30 30 29 28 27 26 26 26 26 25 25 24 23 23 23 24 25 25 26 26 27 27 27 26 25 24 23 22 20 19 19 18 17 16 16 15 15 15 16 16 17
33 32 31 31 30 30 30 29 28 28 28 27 27 26 26 26 26 26 26 26 26 25 25 25 24 22 21 20 19 18 17 16 16 15 15 14 14 14 14 15 16 17 18
Wind_Direction
287 285 283 282 280 278 276 275 273 272 271 270 268 267 266 264 263 262 261 259 258 258 259 259 260 260 260 260 261 261 261 262 262 265 269 272 270 268 267 265 263 260 258
288 286 284 282 280 278 276 274 272 271 269 268 267 266 265 263 262 261 260 258 256 256 256 257 258 258 257 257 258 259 260 261 262 264 267 269 267 266 266 265 263 261 258
287 285 283 281 280 278 276 274 272 270 268 267 265 264 263 262 261 259 258 257 255 254 254 255 255 255 254 255 255 256 258 259 260 262 264 266 265 264 265 264 263 261 258
290 287 285 283 280 278 275 273 271 269 267 266 264 263 262 260 259 258 257 255 254 253 253 253 253 253 252 252 253 254 256 257 258 260 261 263 263 264 264 263 262 258 256
292 290 287 285 282 279 276 274 271 269 268 265 264 263 262 260 258 256 255 254 253 251 250 250 250 250 250 249 250 251 253 254 256 258 259 261 262 262 263 261 260 256 254
292 290 286 284 282 281 279 277 275 273 271 268 266 264 262 260 257 255 253 252 251 249 248 247 247 247 247 247 247 248 250 251 253 255 257 260 260 260 261 259 257 253 250
290 287 284 283 281 279 279 278 277 275 272 271 269 266 263 260 257 254 251 249 248 246 245 244 243 243 243 243 243 244 246 249 250 253 255 257 258 259 259 257 254 249 245
289 285 283 281 279 278 276 276 275 274 271 270 270 269 266 263 259 255 251 248 245 243 241 240 240 239 239 239 240 242 244 245 248 251 252 252 255 256 255 253 250 247 243
288 284 281 279 278 275 272 271 270 269 268 268 268 268 267 265 263 258 253 248 243 239 237 236 235 235 235 235 236 238 240 242 245 247 247 249 251 250 250 248 247 245 241
289 285 281 278 275 273 269 267 267 265 263 264 266 268 267 266 264 262 255 248 241 235 232 231 231 231 230 231 232 234 236 238 241 242 244 246 245 245 245 244 242 239 239
291 286 281 277 273 270 266 263 263 260 259 261 263 266 266 266 265 263 257 248 239 231 226 225 225 226 225 226 228 230 231 233 235 237 238 239 238 238 239 236 235 234 235
291 286 281 276 271 268 264 260 258 258 257 258 260 262 263 265 264 262 255 244 236 229 223 221 220 220 220 220 222 224 226 228 230 231 231 231 231 232 231 229 227 227 226
294 287 281 275 271 267 262 258 256 255 255 255 256 257 259 260 259 257 251 242 234 226 218 217 214 212 214 216 216 217 219 221 222 223 224 225 227 226 224 221 219 219 221
299 292 284 275 268 263 260 254 251 251 251 250 249 249 251 254 255 251 247 239 230 221 213 209 207 207 208 211 211 211 212 213 214 216 218 219 220 219 216 213 212 214 216
305 296 288 278 268 260 255 250 247 247 246 244 243 242 244 248 246 244 241 232 225 215 207 201 200 199 200 203 203 203 202 203 205 207 209 211 210 208 206 206 208 210 212
315 305 293 282 270 259 251 244 241 241 240 237 235 235 238 239 234 234 228 221 215 205 198 194 192 191 194 194 193 194 195 196 196 198 199 198 197 199 200 201 203 204 206
333 325 312 293 275 260 248 238 233 230 227 226 227 228 229 226 223 221 217 206 197 190 188 186 183 181 182 182 184 187 189 189 190 191 192 191 193 197 199 200 202 204 206
357 355 348 335 305 264 240 226 218 215 214 214 214 214 211 208 209 210 200 187 182 179 179 177 174 174 176 180 182 182 183 184 185 188 189 191 193 195 196 197 198 200 203
15 15 17 19 18 46 179 185 191 193 194 194 193 192 192 194 196 192 182 175 171 168 167 169 169 168 169 172 174 176 177 179 181 183 184 186 188 191 192 193 195 198 201
30 35 39 43 56 79 108 133 151 163 169 171 172 174 175 177 175 171 166 164 162 160 161 164 166 167 167 167 169 172 174 175 176 177 179 182 183 184 186 189 194 197 202
38 42 46 53 64 79 95 111 128 138 145 150 153 153 151 151 151 153 153 156 159 158 156 159 162 162 163 165 167 170 171 171 170 172 173 175 176 179 182 186 191 196 201
43 47 52 58 67 77 89 103 112 120 125 130 134 135 136 136 138 144 149 151 153 153 152 155 158 158 160 163 165 167 169 169 171 172 173 175 178 184 190 194 198 203 209
48 52 57 62 68 76 83 93 104 112 117 122 125 127 128 129 133 140 145 148 151 152 151 151 155 155 156 158 161 164 167 169 171 174 177 180 185 190 195 200 206 213 220
51 55 60 65 69 75 83 92 100 106 110 114 118 120 122 125 130 136 140 144 146 147 148 149 151 152 153 156 159 162 165 169 173 177 181 185 190 196 202 209 216 222 229
54 59 64 67 71 77 84 92 98 101 105 109 112 114 117 121 125 129 133 136 138 140 142 144 146 147 150 154 157 160 164 169 175 180 186 191 198 205 213 221 229 235 242
55 60 64 69 75 79 83 89 94 98 101 103 105 108 111 115 119 121 125 129 133 136 139 141 144 147 150 155 159 164 170 176 182 188 194 201 210 220 229 236 242 248 254
Height
5734 5730 5726 5723 5721 5719 5717 5716 5715 5715 5714 5715 5716 5717 5718 5720 5722 5724 5726 5728 5731 5733 5736 5738 5740 5742 5745 5747 5748 5750 5751 5753 5755 5755 5755 5755 5754 5755 5756 5757 5757 5758 5760
5715 5710 5706 5703 5700 5698 5696 5695 5695 5695 5695 5695 5696 5698 5700 5702 5704 5707 5710 5713 5716 5720 5722 5725 5728 5731 5733 5736 5738 5740 5742 5743 5745 5747 5747 5747 5747 5747 5748 5749 5750 5751 5752
5694 5690 5685 5681 5678 5676 5674 5672 5672 5673 5673 5674 5675 5677 5679 5682 5685 5689 5692 5696 5700 5704 5708 5712 5715 5718 5722 5725 5727 5730 5732 5733 5735 5737 5738 5738 5739 5740 5740 5741 5742 5743 5744
5672 5667 5663 5659 5656 5653 5652 5650 5650 5650 5651 5652 5653 5656 5658 5661 5665 5669 5673 5677 5682 5687 5692 5697 5701 5705 5709 5713 5716 5719 5722 5724 5726 5728 5730 5730 5731 5732 5733 5733 5734 5735 5736
5650 5645 5641 5637 5634 5632 5631 5630 5629 5629 5629 5630 5632 5634 5636 5640 5644 5648 5653 5658 5663 5669 5675 5681 5686 5691 5696 5700 5704 5708 5711 5714 5716 5718 5720 5722 5723 5724 5725 5726 5726 5727 5729
5630 5626 5622 5619 5617 5615 5613 5612 5611 5610 5610 5610 5611 5613 5615 5618 5622 5626 5632 5638 5644 5650 5657 5664 5670 5677 5682 5687 5692 5696 5700 5704 5707 5709 5711 5713 5714 5715 5716 5718 5719 5720 5722
5613 5609 5606 5604 5602 5600 5599 5597 5596 5596 5595 5595 5595 5596 5597 5599 5602 5606 5611 5617 5624 5631 5639 5646 5654 5661 5668 5674 5680 5685 5689 5693 5697 5700 5702 5704 5706 5707 5709 5710 5712 5713 5715
5596 5593 5591 5589 5587 5586 5585 5584 5584 5583 5583 5583 5583 5583 5583 5584 5586 5589 5593 5598 5605 5613 5621 5629 5637 5646 5653 5661 5667 5673 5678 5683 5686 5690 5693 5696 5698 5699 5701 5703 5704 5706 5708
5580 5577 5575 5573 5572 5572 5571 5571 5571 5571 5571 5572 5572 5572 5572 5573 5574 5576 5578 5583 5589 5596 5604 5613 5622 5631 5639 5647 5654 5661 5667 5672 5676 5681 5684 5687 5689 5691 5693 5695 5697 5699 5701
5564 5561 5559 5558 5557 5557 5557 5558 5558 5559 5560 5561 5562 5562 5562 5563 5563 5565 5567 5570 5576 5582 5590 5598 5607 5616 5625 5633 5642 5649 5656 5662 5667 5671 5675 5678 5681 5683 5686 5688 5690 5693 5695
5549 5546 5544 5542 5542 5542 5543 5545 5546 5548 5549 5551 5552 5553 5553 5554 5554 5555 5557 5560 5564 5570 5577 5585 5593 5602 5611 5621 5630 5638 5645 5652 5657 5662 5666 5670 5673 5676 5679 5681 5684 5687 5690
5533 5530 5529 5528 5528 5529 5530 5532 5534 5537 5539 5541 5542 5544 5545 5546 5547 5547 5549 5551 5555 5560 5566 5574 5582 5591 5599 5609 5618 5627 5635 5642 5648 5653 5658 5662 5666 5669 5672 5675 5678 5681 5684
5519 5517 5515 5515 5515 5516 5518 5521 5523 5526 5529 5531 5533 5535 5537 5539 5540 5540 5541 5543 5547 5552 5558 5565 5572 5580 5589 5599 5608 5617 5625 5633 5639 5645 5650 5654 5659 5663 5666 5669 5672 5675 5679
5507 5504 5503 5503 5503 5505 5507 5510 5514 5517 5520 5523 5525 5528 5530 5532 5533 5534 5536 5538 5541 5545 5551 5557 5564 5572 5581 5590 5600 5609 5617 5625 5631 5637 5643 5648 5652 5656 5660 5664 5667 5671 5674
5496 5494 5493 5493 5494 5496 5498 5501 5505 5509 5512 5515 5518 5521 5524 5526 5528 5530 5531 5533 5536 5540 5545 5551 5558 5566 5575 5584 5593 5602 5610 5618 5625 5631 5637 5642 5647 5651 5655 5659 5663 5667 5670
5489 5487 5486 5486 5486 5488 5491 5494 5498 5502 5505 5509 5512 5516 5519 5521 5523 5526 5528 5530 5533 5537 5542 5548 5555 5563 5571 5580 5589 5597 5605 5612 5619 5626 5632 5637 5642 5647 5651 5655 5659 5663 5666
5485 5483 5482 5481 5482 5484 5486 5489 5492 5496 5500 5504 5508 5511 5514 5517 5520 5522 5525 5528 5531 5535 5540 5546 5553 5561 5569 5577 5586 5594 5601 5608 5615 5622 5628 5634 5639 5643 5648 5652 5655 5659 5663
5485 5482 5481 5480 5480 5482 5483 5486 5489 5493 5497 5501 5504 5508 5511 5514 5517 5520 5524 5527 5530 5534 5540 5546 5553 5560 5568 5576 5584 5591 5599 5606 5613 5619 5625 5631 5636 5640 5645 5649 5653 5657 5660
5487 5484 5482 5481 5481 5482 5483 5486 5489 5492 5496 5499 5503 5506 5509 5513 5516 5519 5523 5527 5531 5536 5542 5548 5555 5561 5568 5575 5583 5591 5598 5605 5611 5618 5623 5629 5633 5638 5642 5647 5651 5655 5658
5492 5489 5486 5485 5485 5485 5486 5488 5490 5493 5496 5500 5503 5506 5509 5512 5516 5520 5523 5528 5533 5539 5545 5551 5557 5563 5570 5577 5584 5591 5598 5604 5610 5616 5622 5627 5632 5636 5640 5645 5649 5652 5656
5499 5495 5493 5491 5490 5490 5490 5492 5494 5496 5499 5502 5505 5508 5511 5514 5518 5522 5527 5532 5537 5543 5549 5554 5560 5566 5572 5579 5586 5593 5599 5605 5611 5616 5622 5627 5631 5636 5640 5644 5647 5651 5654
5507 5503 5500 5498 5496 5496 5496 5497 5498 5501 5503 5506 5509 5511 5514 5518 5521 5526 5531 5537 5542 5547 5553 5558 5564 5570 5576 5582 5589 5595 5601 5607 5612 5617 5622 5627 5631 5635 5639 5643 5646 5649 5652
5517 5513 5509 5507 5505 5504 5504 5504 5505 5507 5509 5511 5514 5517 5520 5523 5527 5532 5537 5542 5547 5553 5558 5563 5568 5574 5580 5586 5592 5597 5603 5608 5613 5618 5622 5627 5630 5634 5638 5641 5644 5647 5649
5529 5524 5520 5517 5515 5513 5512 5512 5513 5515 5517 5519 5521 5524 5527 5531 5535 5539 5543 5548 5553 5558 5563 5568 5574 5579 5585 5590 5595 5600 5605 5610 5614 5619 5623 5626 5630 5633 5636 5639 5641 5643 5645
5541 5536 5532 5529 5527 5525 5524 5523 5524 5525 5526 5528 5531 5533 5536 5539 5543 5547 5551 5555 5560 5565 5570 5575 5580 5585 5590 5595 5599 5604 5608 5612 5616 5620 5623 5626 5629 5632 5634 5636 5638 5640 5641
5553 5549 5545 5542 5540 5538 5537 5537 5537 5537 5539 5540 5542 5544 5546 5549 5552 5556 5560 5564 5568 5573 5577 5582 5586 5591 5595 5599 5603 5607 5610 5614 5617 5620 5623 5625 5627 5629 5631 5633 5634 5635 5635